Location: Unspecified
(0.0000°N, 0.0000°E)
Time: 02:48:31
(UTC-05:00)

CZ-3 Stage 3 - Visible Passes

Search period start: 17 October 2017 00:00
Search period end: 27 October 2017 00:00
Orbit: 421 x 34777 km, 31.0° (Epoch: 16 October)

Date Brightness Start Highest point End Pass type
(mag) Time Alt. Az. Time Alt. Az. Time Alt. Az.
17 Oct 6.0 05:54:08 10° NW 07:06:52 79° WSW 15:26:54 36° SE visible
19 Oct 9.9 09:57:26 10° W 10:59:43 19° W 12:59:26 10° WSW visible
19 Oct 7.0 18:43:36 10° WSW 18:46:30 13° WSW 18:46:30 13° WSW visible
20 Oct 5.9 05:44:52 10° WNW 06:55:48 78° WSW 15:18:18 36° SE visible
22 Oct 9.8 09:49:01 10° W 10:50:40 19° W 12:48:10 10° WSW visible
22 Oct 6.9 18:34:21 10° WSW 18:37:53 14° WSW 18:37:53 14° WSW visible
23 Oct 5.9 05:35:37 10° WNW 06:44:54 78° WSW 15:09:41 35° ESE visible
25 Oct 9.8 09:40:39 10° W 10:41:40 18° WSW 12:36:58 10° WSW visible
25 Oct 6.8 18:25:05 10° WSW 18:29:14 15° WSW 18:29:14 15° WSW visible
26 Oct 5.8 05:26:22 10° WNW 06:34:08 77° WSW 15:01:01 34° ESE visible
